Weather History for Juan Santamaria, Costa Rica

Change the Weather History Date:

Monday, January 27, 2014

  Actual Average Record
Temperature  
Mean Temperature 74 °F -  
Max Temperature 85 °F 81 °F - ()
Min Temperature 64 °F 64 °F - ()
Cooling Degree Days 10    
Growing Degree Days 24 (Base 50)    
Moisture  
Dew Point 55 °F    
Average Humidity 53    
Maximum Humidity 78    
Minimum Humidity 23    
Precipitation  
Precipitation 0.00 in 0.01 in - ()
Sea Level Pressure  
Sea Level Pressure 29.93 in    
Wind  
Wind Speed 9 mph ()    
Max Wind Speed 14 mph    
Max Gust Speed 25 mph    
Visibility 8.8 miles    
Events      
T = Trace of Precipitation, MM = Missing Value Source: Averaged Metar Reports

Daily Weather History Graph

Daily Weather History Graph

Search for Another Location

Airport:

Trip Planner

Search our weather history database for the weather conditions in past years. The results will help you decide how hot, cold, wet, or windy it might be!

Date:

Astronomy

Jan. 27, 2014 Rise Set
Actual Time 5:59 AM CST 5:39 PM CST
Civil Twilight 5:37 AM CST 6:01 PM CST
Nautical Twilight 5:11 AM CST 6:27 PM CST
Astronomical Twilight 4:46 AM CST 6:52 PM CST
Moon 2:33 AM CST (1/27) 2:32 PM CST (1/27)
Length of Visible Light 12h 24m
Length of Day
11h 40m
Waning Crescent, 14% of the Moon is Illuminated
Jan 27
Waning Crescent
Jan 30
New
Feb 6
First Quarter
Feb 14
Full
Feb 22
Last Quarter

Hourly Weather History & Observations

Time (CST) Temp. Heat Index Dew Point Humidity Pressure Visibility Wind Dir Wind Speed Gust Speed Precip Events Conditions
12:00 AM 67 °F - 56 °F 59% 29.83 in 12 mi ESE 8.1 mph - -  
12:00 AM 68.0 °F - 55.4 °F 64% 29.98 in - ESE 8.1 mph - N/A   Clear
1:00 AM 66.2 °F - 55.4 °F 68% 29.96 in - ESE 11.5 mph - N/A   Clear
2:00 AM 66.2 °F - 57.2 °F 73% 29.94 in - ESE 11.5 mph - N/A   Clear
3:00 AM 66 °F - 55 °F 59% 29.87 in 12 mi East 11.5 mph - -  
3:00 AM 66.2 °F - 57.2 °F 73% 29.94 in - East 11.5 mph - N/A   Clear
4:00 AM 66.2 °F - 53.6 °F 64% 29.94 in - East 10.4 mph - N/A   Clear
5:00 AM 66.2 °F - 53.6 °F 64% 29.96 in - ESE 11.5 mph - N/A   Clear
6:00 AM 67 °F - 53 °F 51% 29.86 in 12 mi East 9.2 mph - -  
6:00 AM 66.2 °F - 53.6 °F 64% 29.98 in - East 9.2 mph 20.7 mph N/A   Clear
7:00 AM 68.0 °F - 53.6 °F 60% 30.01 in - East 8.1 mph - N/A   Clear
8:00 AM 75.2 °F - 51.8 °F 44% 30.02 in - East 9.2 mph - N/A   Clear
9:00 AM 77 °F - 52 °F 31% 29.88 in 12 mi East 11.5 mph - -  
9:00 AM 77.0 °F - 51.8 °F 41% 30.03 in - East 11.5 mph - N/A   Clear
10:00 AM 78.8 °F - 51.8 °F 39% 30.02 in - East 13.8 mph 25.3 mph N/A   Clear
11:00 AM 82.4 °F - 50.0 °F 32% 30.01 in - East 11.5 mph - N/A   Clear
12:00 PM 83 °F - 51 °F 23% 29.81 in 12 mi East 10.4 mph - -   Scattered Clouds
12:00 PM 82.4 °F - 51.8 °F 35% 29.97 in - East 10.4 mph - N/A   Clear
1:00 PM 84.2 °F - 50.0 °F 30% 29.94 in 6.2 mi East 10.4 mph - N/A   Partly Cloudy
2:00 PM 84.2 °F - 50.0 °F 30% 29.91 in 6.2 mi ESE 11.5 mph 24.2 mph N/A   Partly Cloudy
3:00 PM 83 °F - 53 °F 25% 29.74 in 12 mi East 11.5 mph - -   Scattered Clouds
3:00 PM 82.4 °F 81.4 °F 53.6 °F 37% 29.89 in 6.2 mi East 11.5 mph - N/A   Partly Cloudy
4:00 PM 80.6 °F 80.3 °F 53.6 °F 39% 29.90 in 6.2 mi East 6.9 mph - N/A   Partly Cloudy
5:00 PM 77.0 °F - 64.4 °F 65% 29.91 in 6.2 mi SW 8.1 mph - N/A   Partly Cloudy
6:00 PM 73 °F - 66 °F 72% 29.82 in 12 mi SSW 4.6 mph - -   Scattered Clouds
6:00 PM 73.4 °F - 66.2 °F 78% 29.94 in 6.2 mi SSW 4.6 mph - N/A   Partly Cloudy
7:00 PM 71.6 °F - 59.0 °F 64% 29.95 in 6.2 mi SSE 5.8 mph - N/A   Partly Cloudy
8:00 PM 69.8 °F - 57.2 °F 64% 29.98 in 6.2 mi East 4.6 mph - N/A   Partly Cloudy
9:00 PM 68 °F - 57 °F 60% 29.87 in 12 mi East 8.1 mph - -   Scattered Clouds
9:00 PM 68.0 °F - 57.2 °F 68% 30.00 in 6.2 mi East 8.1 mph - N/A   Partly Cloudy
10:00 PM 66.2 °F - 55.4 °F 68% 30.01 in 6.2 mi ENE 12.7 mph - N/A   Partly Cloudy
11:00 PM 68.0 °F - 55.4 °F 64% 30.00 in - ENE 10.4 mph - N/A   Clear